Location: *
(41.6883°N, 4.5231°W)
Time: 16:03:17
(UTC+00:00)

Daily predictions for brighter satellites

Satellite Brightness Start Highest point End
(mag) Time Altitude Azimuth Time Altitude Azimuth Time Altitude Azimuth
NOSS 3-2 (C) 4.3 17:02:24 10° NW 17:10:06 85° SW 17:18:35 10° SSE
Cosmos 2228 Rocket 4.3 17:10:59 10° SSW 17:15:22 47° WNW 17:19:49 10° N
Okean-O 3.6 17:15:09 10° ESE 17:18:44 25° ENE 17:22:20 10° NNE
Cosmos 1602 3.7 17:15:39 10° N 17:19:32 72° E 17:23:23 10° SSE
Cosmos 1689 Rocket 3.8 17:16:44 10° N 17:19:33 35° WNW 17:22:20 10° SW
Cosmos 1844 Rocket 2.7 17:14:38 10° NNW 17:20:15 89° WSW 17:25:50 10° SSE
Lacrosse 5 rocket 2.3 17:19:00 10° SSW 17:22:56 34° SE 17:26:42 10° ENE
USA 267 3.4 17:16:56 10° SE 17:23:30 89° SW 17:30:04 10° NW
NOSS 3-4 (A) 3.7 17:17:39 10° SW 17:23:37 73° NW 17:29:57 10° NNE
NOSS 3-4 (C) 3.7 17:17:45 10° SW 17:23:44 74° NW 17:30:05 10° NNE
AQUARIUS 4.5 17:19:51 10° SE 17:24:07 45° ENE 17:28:24 10° N
BREEZE-M DEB (TANK) 3.5 17:18:02 10° WNW 17:24:43 35° N 17:27:28 10° ENE
Helios 1A Rocket 3.9 17:21:17 10° S 17:25:19 53° W 17:29:21 10° NNW
Cosmos 1500 4.3 17:22:40 10° NNE 17:25:41 22° ENE 17:28:41 10° SE
H-2A R/B 3.0 17:23:22 10° SE 17:26:53 42° ENE 17:30:24 10° N
ISS -2.0 17:25:23 10° NNW 17:27:51 19° NNE 17:30:13 11° ENE
CZ-4B R/B 4.2 17:25:48 10° NNW 17:28:19 19° WNW 17:30:49 10° WSW
ATLAS 3B R/B 2.7 17:21:44 10° NNW 17:28:30 77° NE 17:35:24 10° SE
Cosmos 2279 Rocket 4.0 17:22:32 10° N 17:28:47 69° E 17:35:01 10° SSE
Cosmos 1340 2.6 17:25:29 10° N 17:29:17 89° ENE 17:33:03 10° S
COSMOS 2428 2.7 17:26:33 10° SSW 17:32:10 69° ESE 17:37:50 10° NNE
Cosmos 1634 Rocket 4.4 17:26:06 10° NNW 17:32:14 69° W 17:38:22 10° S
SL-4 R/B 1.9 17:29:32 10° WSW 17:33:12 73° NNW 17:36:58 11° NE
Cosmos 1707 Rocket 3.6 17:32:01 10° S 17:36:28 86° E 17:40:57 10° N
Meteor 1-5 Rocket 4.3 17:32:20 10° N 17:37:46 50° ENE 17:43:00 10° SSE
COBE Rocket 3.8 17:34:10 10° NNE 17:38:47 63° E 17:43:24 10° S
Cosmos 1782 4.1 17:37:27 10° SSW 17:41:16 42° WNW 17:45:05 10° N
STARLINK-67 4.5 17:40:33 10° W 17:42:47 22° NNW 17:44:53 11° NNE
SL-8 R/B 3.7 17:38:00 10° WNW 17:42:51 90° NNE 17:47:41 10° ESE
Cosmos 1315 Rocket 3.6 17:41:09 10° SSW 17:45:00 53° WNW 17:48:57 10° N
YAOGAN 6 3.7 17:43:18 10° ESE 17:46:05 22° ENE 17:48:52 10° NNE
Nadezhda 4 Rocket 4.2 17:41:10 10° SSE 17:47:13 51° E 17:53:19 10° NNE
Cosmos 44 Rocket 4.2 17:42:45 10° NW 17:47:19 51° WSW 17:51:52 10° SSE
Cosmos 1346 Rocket 3.7 17:48:22 10° NNW 17:52:13 51° W 17:56:05 10° S
IRS-1C Rocket 4.4 17:48:34 10° S 17:53:50 74° WSW 17:59:08 10° NNW
Meteor 2-6 Rocket 4.3 17:50:29 10° SSW 17:55:52 75° W 18:01:18 10° N
Shenzhou-11 Module 1.6 17:54:09 10° W 17:56:53 86° NNW 17:58:10 28° ENE
Cosmos 1908 Rocket 4.5 17:53:25 10° NNE 17:57:09 26° ENE 18:00:49 10° SE
COSMO-SKYMED 1 3.1 17:54:03 10° NNE 17:58:06 37° E 18:02:07 10° SSE
STARLINK-46 2.8 17:55:51 10° WSW 17:58:33 63° NW 17:59:57 25° NE
ATLAS 2AS CENTAUR R/B 4.1 17:54:15 10° WSW 18:01:41 41° NW 18:09:11 10° NNE
Cosmos 1302 Rocket 4.2 17:58:15 10° NNW 18:03:32 74° WSW 18:08:44 10° S
Meteor 1-10 Rocket 4.4 17:58:08 10° SSW 18:03:40 74° W 18:09:15 10° N
Cosmos 2251 Rocket 3.5 17:58:34 10° S 18:03:49 65° ESE 18:09:04 10° NNE
YAOGAN 1 3.4 18:02:32 10° SE 18:06:13 28° ENE 18:09:55 10° N
SMAP 3.7 18:01:47 10° S 18:06:22 59° W 18:11:00 10° NNW
BREEZE-M R/B 4.1 18:03:26 10° WNW 18:08:21 29° NNW 18:10:05 19° NNE
Cosmos 1666 3.4 18:07:19 10° NNE 18:10:39 29° ENE 18:13:57 10° SE
Cosmos 2278 Rocket 2.2 18:05:33 10° NNW 18:11:09 57° ENE 18:16:42 10° SE
SeaSat 1 4.4 18:14:08 12° NNE 18:14:08 12° NNE 18:15:07 10° NNE
Atlas Centaur 2 4.3 18:06:14 10° WSW 18:13:11 35° S 18:20:39 10° SE
RESURS DK-1 2.9 18:10:48 10° SW 18:14:50 57° WNW 18:18:25 13° NNE
Cosmos 2360 Rocket 4.4 18:12:52 10° W 18:16:58 20° NW 18:21:05 10° N
Meteor 1-11 Rocket 3.9 18:14:52 10° N 18:20:52 84° W 18:26:49 10° S
SKYMED 3 4.5 18:18:19 12° NNE 18:22:19 70° E 18:26:39 10° S
SL-16 R/B 3.2 18:18:02 10° SSE 18:22:34 25° ESE 18:22:47 25° E
Cosmos 2333 Rocket 3.2 18:18:29 10° SW 18:23:57 45° WNW 18:29:29 10° NNE
Cosmos 1733 Rocket 3.6 18:20:40 10° NNW 18:24:58 59° W 18:29:16 10° S
Meteor 1-27 Rocket 3.8 18:19:42 10° SSW 18:25:22 81° W 18:31:14 10° N
ERBS 3.1 18:22:25 10° NW 18:25:39 50° SW 18:28:40 12° SSE
Okean 1-7 3.5 18:24:20 10° SSE 18:28:17 38° E 18:28:17 38° E
Envisat 3.2 18:25:16 10° S 18:30:20 73° WSW 18:35:26 10° NNW
Cosmos 1812 3.8 18:29:23 10° SSW 18:33:04 44° W 18:36:48 10° N
Cosmos 292 Rocket 4.1 18:28:29 10° N 18:33:06 41° ENE 18:33:42 39° E
Cosmos 2237 Rocket 2.1 18:30:07 10° SSW 18:35:49 88° ESE 18:39:44 21° NNE
NOAA 15 4.4 18:35:38 10° SSE 18:40:52 72° ENE 18:46:07 10° N
Cosmos 407 Rocket 4.3 18:36:32 10° SSE 18:40:06 30° ESE 18:40:06 30° ESE
CZ-4 R/B 1.2 18:39:58 10° SSE 18:43:56 87° W 18:47:51 10° NNW
Cosmos 2195 Rocket 4.4 18:40:02 10° S 18:46:11 77° E 18:52:28 10° N
SKYMED 2 3.9 18:42:35 14° N 18:46:18 63° WNW 18:50:34 10° SSW
Cosmos 1536 3.3 18:42:31 10° NNW 18:46:29 59° W 18:50:24 10° S
Meteor 1-18 Rocket 4.5 18:43:13 10° SSE 18:48:40 45° E 18:48:43 45° E
OAO 2 Rocket 4.3 18:44:51 10° SW 18:49:26 35° S 18:50:33 31° SE
Cosmos 2242 Rocket 4.3 18:45:52 10° SSW 18:50:20 56° W 18:54:45 11° N
Cosmos 1992 Rocket 4.1 18:45:18 10° NNW 18:50:31 75° WSW 18:55:43 10° SSE
Cosmos 1092 Rocket 4.0 18:44:20 10° S 18:50:40 82° W 18:57:00 10° N
Cosmos 2219 Rocket 4.0 18:50:15 10° WSW 18:54:57 27° NW 18:59:43 10° N
Okean-O 4.5 18:51:08 10° SSW 18:55:04 31° W 18:59:02 10° NNW
Cosmos 1703 Rocket 3.6 18:55:51 10° SSW 19:00:18 77° W 19:01:33 47° N
OAO 3 Rocket 4.3 18:57:32 10° SW 19:01:44 31° SSE 19:01:51 31° SSE
Lacrosse 5 rocket 2.5 18:58:11 10° WSW 19:02:06 35° NW 19:02:32 34° NNW
ISS -1.6 19:01:44 10° NW 19:03:08 23° NW 19:03:08 23° NW
Aureole 1 Rocket 4.5 19:02:55 10° SSW 19:04:01 20° SW 19:04:01 20° SW
Cosmos 1980 4.4 19:00:31 10° SW 19:05:59 50° WNW 19:09:20 23° N
Cosmos 2297 4.3 19:04:45 10° NNW 19:08:43 40° NNE 19:08:43 40° NNE
SL-4 R/B 3.9 19:10:11 10° WNW 19:12:35 22° NNW 19:12:35 22° NNW
SL-24 R/B 4.5 19:13:34 77° ESE 19:13:34 77° ESE 19:19:20 10° S
CSL-04 Rocket 4.1 19:13:05 10° S 19:18:16 58° WSW 19:23:30 10° NNW
Cosmos 1943 Rocket 4.5 19:15:57 10° N 19:16:11 11° N 19:16:11 11° N
Cosmos 1553 Rocket 4.1 19:31:57 10° N 19:43:55 14° S 19:44:44 10° S
SL-16 R/B 3.5 20:00:55 10° SW 20:04:43 37° WSW 20:04:43 37° WSW
